Regional Weather Roundup
Issued by NWS

Home | Current Version | Previous Version | Text Only | Print | Product List | Glossary Off
Versions: 1 2 3 4 5 6 7 8 9 10 11 12 13 14 15 16 17 18 19 20 21 22 23 24 25 26 27 28 29 30 31 32 33 34 35 36 37 38 39 40 41 42 43 44 45 46 47 48 49 50

000
ASUS43 KDTX 290710
RWRMI
MICHIGAN HOURLY REGIONAL WEATHER ROUNDUP
NATIONAL WEATHER SERVICE DETROIT/PONTIAC MI
300 AM EDT FRI AUG 29 2014

NOTE: "FAIR" INDICATES FEW OR NO CLOUDS BELOW 12,000 FEET WITH NO
SIGNIFICANT WEATHER AND/OR OBSTRUCTION TO VISIBILITY.

MIZ047>049-052>055-059>063-066>070-074>076-081>083-290800-
SOUTHEAST LOWER MICHIGAN

CITY           SKY/WX    TMP DP  RH WIND       PRES   REMARKS
ADRIAN         PTCLDY    60  53  77 SE5       30.13F
ALMA           CLOUDY    59  55  88 E3        30.11F
ANN ARBOR      PTCLDY    59  53  80 CALM      30.13F
BAD AXE        CLOUDY    52  51  95 CALM      30.15S
DETROIT CITY   MOCLDY    63  53  70 SE5       30.14F
DETROIT        MOCLDY    60  53  77 E3        30.13F
FLINT          CLOUDY    59  50  72 SE3       30.13F
GROSSE ILE     MOCLDY    61  55  82 E5        30.12F
HILLSDALE      MOCLDY    61  55  80 SE7       30.11F
HOWELL         PTCLDY    58  55  89 SE3       30.12F

CITY           SKY/WX    TMP DP  RH WIND       PRES   REMARKS
JACKSON        PTCLDY    60  56  86 SE5       30.11F
LAMBERTVILLE   PTCLDY    59  52  77 SE3       30.13F
LANSING        MOCLDY    63  55  75 SE8       30.11F
LAPEER         NOT AVBL
MASON          PTCLDY    58  55  91 SE5       30.11F
MONROE         PTCLDY    55  55 100 CALM      30.10F
MT. CLEMENS    MOCLDY    61  52  73 E5        30.13F
PONTIAC        CLOUDY    60  51  72 E5        30.13F
PORT HOPE        N/A     59  50  72 CALM      30.12F
PORT HURON     CLOUDY    52  52 100 CALM      30.14F
TRI CITIES     CLOUDY    61  51  70 SE8       30.14F
YPSILANTI      MOCLDY    61  53  75 E5        30.13F
$$
MIZ043>046-050>051-056>058-064>065-071>073-077>080-290800-
SOUTHWEST LOWER MICHIGAN

CITY           SKY/WX    TMP DP  RH WIND       PRES   REMARKS
BATTLE CREEK   MOCLDY    64  56  75 SE9       30.09F
BENTON HARBOR  CLOUDY    65  61  87 SE8       30.02F
BIG RAPIDS     CLOUDY    61  56  83 SE5       30.09F
COLDWATER      MOCLDY    63  57  79 SE7       30.09F
HOLLAND        CLOUDY    64  55  72 E7        30.05F
GRAND RAPIDS   MOCLDY    63  57  81 E9        30.08F
KALAMAZOO      MOCLDY    64  57  78 SE6       30.07F
MARSHALL       MOCLDY    61  56  82 E6        30.09F
MUSKEGON       CLOUDY    64  50  60 E10       30.05F
$$
MIZ016>042-290800-
NORTHERN LOWER MICHIGAN

CITY           SKY/WX    TMP DP  RH WIND       PRES   REMARKS
ALPENA         MOCLDY    50  47  89 CALM      30.14F
BEAVER ISLAND  CLOUDY    56  53  91 E5        30.09S
BELLAIRE       CLOUDY    56  53  91 CALM      30.08F
CADILLAC       CLOUDY    61  53  74 SE10      30.09F
CHARLEVOIX     CLOUDY    58  53  81 SE6       30.12F
FRANKFORT      CLOUDY    64  52  63 SE3       30.06F
GAYLORD        CLOUDY    54  51  90 SE8       30.12F
GRAYLING       CLOUDY    54  53  95 E5        30.13F
HARBOR SPRINGS CLOUDY    57  52  83 NE5       30.10F
HOUGHTON LAKE  CLOUDY    57  51  80 SE8       30.13F
MANISTEE       CLOUDY    61  54  77 E5        30.07S
OSCODA         MOCLDY    53  51  92 CALM      30.13F
PELLSTON       CLOUDY    49  48  97 CALM      30.11F
TRAVERSE CITY  CLOUDY    61  52  72 CALM      30.07F
$$
MIZ007>008-015-290800-
EASTERN UPPER MICHIGAN

CITY           SKY/WX    TMP DP  RH WIND       PRES   REMARKS
KINROSS        MOCLDY    52  52 100 SE3       30.11S
MACKINAC ISLAN MOCLDY    57  51  79 S8        30.10S
NEWBERRY       MOCLDY    52  50  93 SE3       30.09F
S. S. MARIE    PTCLDY    50  48  93 E3        30.11S
$$
MIZ004>006-011>014-085-290800-
CENTRAL UPPER MICHIGAN

CITY           SKY/WX    TMP DP  RH WIND       PRES   REMARKS
MANISTIQUE     CLOUDY    60  55  84 SE7       30.07S
ESCANABA       MOCLDY    64  54  68 SE8       30.05F
MENOMINEE      CLOUDY    64  55  72 SE6       30.03S
SAWYER-GWINN   CLOUDY    56  53  89 S7        30.05F
$$
MIZ001>003-009>011-084-290800-
WESTERN UPPER MICHIGAN

CITY           SKY/WX    TMP DP  RH WIND       PRES   REMARKS
IRON MOUNTAIN  CLOUDY    59  55  87 SE6       30.04F
HOUGHTON       CLOUDY    59  56  89 S7        29.99F
COPPER HARBOR    N/A     60  56  86 SW8       29.98F
$$

ABBREVIATIONS USED IN REMARKS
   TC - TEMPERATURE IN CELSIUS
  WCI - WIND CHILL INDEX
   HX - HEAT INDEX
  VSB - VISIBILITY



USA.gov is the U.S. government's official web portal to all federal, state and local government web resources and services.